When you browse on this site, cookies collect data to enhance your experience and personalize the content and advertising you see.
Visit our Privacy Policy to learn more. By continuing to use the site, you agree to this use of cookies and data.
  • In Österreich
  • Länderverzeichnis
  • Für 7 Tage
  • Wassertemperatur
  • Wetterkarte
  • News
  • Widgets
  • user-avatar
    Anmelden

    Stündliche Wetter Mezhlese

    Heute, 29 Mai, Freitag

    Zeit Temperatur Niederschläge Wind Luftdruck Luftfeuchtigkeit
    00:00 +10°C° 0.1 mm 2 m/S 750 mmHg 94%
    01:00 +10°C° 0.1 mm 2 m/S 750 mmHg 95%
    02:00 +11°C° 0 mm 1 m/S 750 mmHg 95%
    03:00 +11°C° 0.2 mm 1 m/S 749 mmHg 95%
    04:00 +10°C° 0.2 mm 2 m/S 749 mmHg 95%
    05:00 +10°C° 0.2 mm 2 m/S 749 mmHg 96%
    06:00 +11°C° 0.2 mm 3 m/S 749 mmHg 94%
    07:00 +12°C° 0.2 mm 4 m/S 749 mmHg 92%
    08:00 +12°C° 0 mm 5 m/S 749 mmHg 90%
    09:00 +11°C° 0.2 mm 6 m/S 749 mmHg 90%
    10:00 +11°C° 0.2 mm 6 m/S 749 mmHg 90%
    11:00 +11°C° 0.2 mm 6 m/S 748 mmHg 89%
    12:00 +11°C° 0.2 mm 6 m/S 748 mmHg 88%
    13:00 +11°C° 0.2 mm 6 m/S 748 mmHg 88%
    14:00 +11°C° 0.2 mm 6 m/S 748 mmHg 87%
    15:00 +11°C° 0 mm 6 m/S 748 mmHg 85%
    16:00 +13°C° 0 mm 6 m/S 748 mmHg 83%
    17:00 +12°C° 0 mm 7 m/S 748 mmHg 81%
    18:00 +11°C° 0 mm 6 m/S 747 mmHg 81%
    19:00 +11°C° 0 mm 6 m/S 747 mmHg 81%
    20:00 +12°C° 0 mm 5 m/S 747 mmHg 81%
    21:00 +12°C° 0 mm 5 m/S 747 mmHg 81%
    22:00 +10°C° 0 mm 5 m/S 746 mmHg 82%
    23:00 +10°C° 0 mm 5 m/S 746 mmHg 82%

    Morgen, 30 Mai, Samstag

    Zeit Temperatur Niederschläge Wind Luftdruck Luftfeuchtigkeit
    00:00 +12°C° 0 mm 5 m/S 746 mmHg 83%
    01:00 +11°C° 0 mm 6 m/S 745 mmHg 83%
    02:00 +11°C° 0 mm 6 m/S 745 mmHg 84%
    03:00 +11°C° 0.1 mm 6 m/S 745 mmHg 86%
    04:00 +10°C° 0.1 mm 5 m/S 744 mmHg 89%
    05:00 +10°C° 0.1 mm 5 m/S 744 mmHg 91%
    06:00 +11°C° 0.3 mm 6 m/S 743 mmHg 91%
    07:00 +11°C° 0.3 mm 6 m/S 743 mmHg 91%
    08:00 +11°C° 0.3 mm 6 m/S 743 mmHg 92%
    09:00 +11°C° 1.8 mm 6 m/S 743 mmHg 93%
    10:00 +11°C° 1.8 mm 6 m/S 742 mmHg 95%
    11:00 +10°C° 1.8 mm 6 m/S 742 mmHg 96%
    12:00 +11°C° 0.8 mm 6 m/S 742 mmHg 96%
    13:00 +11°C° 0.8 mm 6 m/S 741 mmHg 95%
    14:00 +11°C° 0.8 mm 6 m/S 741 mmHg 95%
    15:00 +13°C° 0.9 mm 6 m/S 740 mmHg 95%
    16:00 +13°C° 0.9 mm 6 m/S 739 mmHg 96%
    17:00 +13°C° 0.9 mm 6 m/S 739 mmHg 96%
    18:00 +14°C° 2.9 mm 6 m/S 738 mmHg 96%
    19:00 +14°C° 2.9 mm 7 m/S 738 mmHg 96%
    20:00 +13°C° 2.9 mm 8 m/S 738 mmHg 96%
    21:00 +13°C° 1.4 mm 8 m/S 737 mmHg 96%
    22:00 +13°C° 1.4 mm 8 m/S 737 mmHg 95%
    23:00 +15°C° 1.4 mm 8 m/S 737 mmHg 95%

    übermorgen, 31 Mai, Sonntag

    Zeit Temperatur Niederschläge Wind Luftdruck Luftfeuchtigkeit
    00:00 +14°C° 0.7 mm 7 m/S 737 mmHg 95%
    01:00 +14°C° 0.7 mm 6 m/S 737 mmHg 96%
    02:00 +14°C° 0.7 mm 5 m/S 738 mmHg 96%
    03:00 +13°C° 0.1 mm 5 m/S 738 mmHg 96%
    04:00 +13°C° 0.1 mm 5 m/S 739 mmHg 96%
    05:00 +13°C° 0.1 mm 4 m/S 740 mmHg 96%
    06:00 +13°C° 0 mm 4 m/S 740 mmHg 95%
    07:00 +13°C° 0 mm 4 m/S 741 mmHg 95%
    08:00 +14°C° 0 mm 3 m/S 742 mmHg 94%
    09:00 +13°C° 0.6 mm 4 m/S 742 mmHg 94%
    10:00 +13°C° 0.6 mm 5 m/S 743 mmHg 95%
    11:00 +13°C° 0.6 mm 6 m/S 743 mmHg 95%
    12:00 +13°C° 0.5 mm 6 m/S 744 mmHg 93%
    13:00 +12°C° 0.5 mm 7 m/S 744 mmHg 92%
    14:00 +12°C° 0.5 mm 7 m/S 744 mmHg 90%
    15:00 +13°C° 0.1 mm 6 m/S 745 mmHg 87%
    16:00 +14°C° 0.1 mm 5 m/S 745 mmHg 84%
    17:00 +14°C° 0.1 mm 5 m/S 745 mmHg 81%
    18:00 +14°C° 0 mm 4 m/S 746 mmHg 81%
    19:00 +13°C° 0 mm 4 m/S 746 mmHg 82%
    20:00 +13°C° 0 mm 4 m/S 747 mmHg 82%
    21:00 +12°C° 0 mm 4 m/S 747 mmHg 82%
    22:00 +12°C° 0 mm 4 m/S 747 mmHg 82%
    23:00 +11°C° 0 mm 4 m/S 748 mmHg 82%

    1 Juni, Montag

    Zeit Temperatur Niederschläge Wind Luftdruck Luftfeuchtigkeit
    00:00 +11°C° 0 mm 4 m/S 748 mmHg 80%
    01:00 +10°C° 0 mm 4 m/S 748 mmHg 78%
    02:00 +9°C° 0 mm 5 m/S 748 mmHg 76%
    03:00 +8°C° 0 mm 5 m/S 749 mmHg 77%
    04:00 +8°C° 0 mm 5 m/S 749 mmHg 77%
    05:00 +7°C° 0 mm 5 m/S 749 mmHg 77%
    06:00 +8°C° 0 mm 6 m/S 750 mmHg 73%
    07:00 +9°C° 0 mm 6 m/S 750 mmHg 69%
    08:00 +10°C° 0 mm 6 m/S 751 mmHg 64%
    09:00 +11°C° 0 mm 6 m/S 751 mmHg 62%
    10:00 +13°C° 0 mm 6 m/S 751 mmHg 59%
    11:00 +13°C° 0 mm 6 m/S 751 mmHg 57%
    12:00 +14°C° 0 mm 6 m/S 751 mmHg 56%
    13:00 +14°C° 0 mm 6 m/S 751 mmHg 56%
    14:00 +14°C° 0 mm 6 m/S 751 mmHg 56%
    15:00 +14°C° 0 mm 6 m/S 751 mmHg 57%
    16:00 +14°C° 0 mm 5 m/S 751 mmHg 59%
    17:00 +13°C° 0 mm 5 m/S 751 mmHg 60%
    18:00 +12°C° 0 mm 4 m/S 750 mmHg 66%
    19:00 +11°C° 0 mm 3 m/S 750 mmHg 73%
    20:00 +9°C° 0 mm 2 m/S 750 mmHg 79%
    21:00 +9°C° 0 mm 2 m/S 750 mmHg 81%
    22:00 +8°C° 0 mm 2 m/S 750 mmHg 83%
    23:00 +7°C° 0 mm 2 m/S 750 mmHg 85%

    2 Juni, Dienstag

    Zeit Temperatur Niederschläge Wind Luftdruck Luftfeuchtigkeit
    00:00 +6°C° 0 mm 2 m/S 750 mmHg 86%
    01:00 +6°C° 0 mm 2 m/S 750 mmHg 87%
    02:00 +6°C° 0 mm 2 m/S 750 mmHg 89%
    03:00 +5°C° 0 mm 2 m/S 750 mmHg 88%
    04:00 +5°C° 0 mm 2 m/S 750 mmHg 88%
    05:00 +5°C° 0 mm 2 m/S 749 mmHg 87%
    06:00 +7°C° 0 mm 2 m/S 749 mmHg 80%
    07:00 +9°C° 0 mm 3 m/S 749 mmHg 73%
    08:00 +11°C° 0 mm 3 m/S 749 mmHg 66%
    09:00 +12°C° 0.1 mm 3 m/S 749 mmHg 62%
    10:00 +13°C° 0.1 mm 3 m/S 749 mmHg 57%
    11:00 +14°C° 0.1 mm 4 m/S 749 mmHg 53%
    12:00 +15°C° 0.1 mm 4 m/S 749 mmHg 53%
    13:00 +15°C° 0.1 mm 4 m/S 748 mmHg 53%
    14:00 +16°C° 0.1 mm 3 m/S 748 mmHg 53%
    15:00 +16°C° 0.3 mm 3 m/S 748 mmHg 56%
    16:00 +16°C° 0.3 mm 3 m/S 747 mmHg 60%
    17:00 +16°C° 0.3 mm 3 m/S 747 mmHg 63%
    18:00 +13°C° 0.1 mm 3 m/S 747 mmHg 70%
    19:00 +13°C° 0.1 mm 2 m/S 747 mmHg 76%
    20:00 +10°C° 0.1 mm 2 m/S 747 mmHg 83%
    21:00 +9°C° 0 mm 2 m/S 747 mmHg 85%
    22:00 +9°C° 0 mm 1 m/S 747 mmHg 88%
    23:00 +8°C° 0 mm 1 m/S 747 mmHg 90%

    3 Juni, Mittwoch

    Zeit Temperatur Niederschläge Wind Luftdruck Luftfeuchtigkeit
    00:00 +8°C° 0 mm 1 m/S 747 mmHg 91%
    01:00 +7°C° 0 mm 1 m/S 746 mmHg 92%
    02:00 +7°C° 0 mm 1 m/S 746 mmHg 92%
    03:00 +7°C° 0 mm 1 m/S 746 mmHg 92%
    04:00 +7°C° 0 mm 1 m/S 746 mmHg 92%
    05:00 +7°C° 0 mm 1 m/S 746 mmHg 91%
    06:00 +9°C° 0 mm 1 m/S 746 mmHg 84%
    07:00 +11°C° 0 mm 1 m/S 746 mmHg 77%
    08:00 +13°C° 0 mm 1 m/S 746 mmHg 70%
    09:00 +14°C° 0.1 mm 1 m/S 746 mmHg 64%
    10:00 +16°C° 0.1 mm 1 m/S 745 mmHg 58%
    11:00 +17°C° 0.1 mm 2 m/S 745 mmHg 52%
    12:00 +17°C° 0 mm 2 m/S 745 mmHg 51%
    13:00 +17°C° 0 mm 2 m/S 745 mmHg 50%
    14:00 +17°C° 0 mm 2 m/S 744 mmHg 50%
    15:00 +17°C° 0 mm 2 m/S 744 mmHg 52%
    16:00 +17°C° 0 mm 2 m/S 744 mmHg 54%
    17:00 +17°C° 0 mm 2 m/S 744 mmHg 56%
    18:00 +15°C° 0 mm 1 m/S 744 mmHg 63%
    19:00 +14°C° 0 mm 1 m/S 744 mmHg 69%
    20:00 +12°C° 0 mm 1 m/S 744 mmHg 76%
    21:00 +11°C° 0 mm 1 m/S 744 mmHg 78%
    22:00 +9°C° 0 mm 0 m/S 744 mmHg 81%
    23:00 +8°C° 0 mm 0 m/S 744 mmHg 83%
    Mehr zeigen